QPF
0.01 0.01 0.00 0.00 0.00 0.01 0.02 0.03 0.03 0.03 0.05 0.05 0.06 0.05 0.04 0.03 0.03 0.02 0.02 0.03 0.03 0.03 0.04 0.05 0.09 0.07 0.07 0.07 0.08 0.10 0.11 0.09 0.08 0.09 0.06 0.02 0.01 0.02 0.02 0.02 0.03 0.04 0.05
0.00 0.00 0.00 0.00 0.01 0.01 0.01 0.01 0.01 0.03 0.03 0.05 0.05 0.05 0.04 0.03 0.03 0.03 0.05 0.05 0.04 0.04 0.05 0.07 0.08 0.09 0.11 0.10 0.10 0.11 0.11 0.08 0.09 0.12 0.14 0.13 0.11 0.07 0.02 0.03 0.04 0.06 0.07
0.00 0.00 0.00 0.00 0.01 0.01 0.00 0.00 0.01 0.02 0.02 0.04 0.04 0.04 0.05 0.04 0.07 0.07 0.08 0.06 0.06 0.06 0.06 0.07 0.07 0.09 0.09 0.13 0.15 0.12 0.12 0.13 0.12 0.13 0.14 0.15 0.16 0.13 0.07 0.05 0.03 0.04 0.06
0.00 0.00 0.00 0.00 0.00 0.01 0.01 0.01 0.02 0.02 0.03 0.03 0.04 0.05 0.06 0.06 0.07 0.08 0.09 0.09 0.08 0.07 0.07 0.08 0.09 0.09 0.08 0.13 0.12 0.14 0.14 0.17 0.15 0.15 0.12 0.11 0.13 0.15 0.14 0.11 0.07 0.07 0.07
0.00 0.00 0.00 0.00 0.00 0.00 0.00 0.00 0.01 0.02 0.02 0.03 0.04 0.05 0.06 0.06 0.06 0.08 0.12 0.11 0.11 0.08 0.06 0.07 0.07 0.07 0.07 0.09 0.10 0.14 0.13 0.14 0.13 0.12 0.11 0.11 0.12 0.12 0.13 0.15 0.16 0.17 0.14
0.01 0.00 0.00 0.00 0.00 0.00 0.00 0.00 0.01 0.02 0.02 0.03 0.03 0.05 0.05 0.07 0.08 0.12 0.14 0.12 0.10 0.09 0.07 0.05 0.06 0.06 0.06 0.07 0.08 0.11 0.12 0.12 0.13 0.12 0.10 0.09 0.10 0.10 0.13 0.15 0.18 0.21 0.18
0.00 0.00 0.00 0.00 0.00 0.00 0.00 0.00 0.01 0.01 0.02 0.02 0.02 0.03 0.04 0.06 0.07 0.10 0.11 0.09 0.07 0.07 0.07 0.06 0.07 0.06 0.06 0.06 0.08 0.11 0.13 0.13 0.13 0.12 0.11 0.10 0.08 0.09 0.12 0.14 0.15 0.16 0.16
0.00 0.01 0.02 0.01 0.01 0.00 0.00 0.00 0.00 0.01 0.02 0.02 0.02 0.03 0.03 0.04 0.05 0.07 0.06 0.06 0.06 0.07 0.08 0.08 0.07 0.05 0.07 0.07 0.09 0.09 0.11 0.12 0.11 0.10 0.11 0.10 0.09 0.08 0.09 0.11 0.15 0.16 0.14
0.00 0.00 0.00 0.01 0.00 0.00 0.00 0.00 0.01 0.02 0.02 0.02 0.03 0.04 0.04 0.04 0.06 0.07 0.05 0.04 0.06 0.08 0.08 0.07 0.06 0.06 0.07 0.08 0.09 0.08 0.08 0.09 0.09 0.08 0.09 0.08 0.05 0.06 0.08 0.11 0.15 0.15 0.12
0.00 0.00 0.00 0.00 0.00 0.00 0.00 0.00 0.01 0.03 0.03 0.03 0.04 0.04 0.06 0.06 0.06 0.06 0.08 0.09 0.07 0.07 0.07 0.07 0.07 0.08 0.08 0.07 0.08 0.07 0.08 0.08 0.07 0.06 0.07 0.07 0.06 0.08 0.09 0.10 0.13 0.14 0.13
0.00 0.00 0.00 0.00 0.00 0.01 0.01 0.02 0.03 0.03 0.03 0.03 0.04 0.04 0.05 0.05 0.06 0.06 0.08 0.10 0.08 0.07 0.07 0.09 0.09 0.08 0.07 0.08 0.09 0.06 0.06 0.06 0.06 0.05 0.07 0.09 0.11 0.10 0.10 0.11 0.12 0.14 0.14
0.01 0.02 0.04 0.03 0.02 0.02 0.02 0.02 0.02 0.02 0.02 0.02 0.02 0.03 0.04 0.05 0.06 0.06 0.06 0.07 0.06 0.06 0.09 0.10 0.08 0.07 0.07 0.08 0.08 0.06 0.06 0.06 0.06 0.06 0.08 0.09 0.09 0.09 0.08 0.08 0.08 0.10 0.11
0.05 0.12 0.12 0.06 0.04 0.02 0.01 0.01 0.01 0.02 0.03 0.02 0.02 0.03 0.04 0.04 0.05 0.05 0.05 0.06 0.06 0.06 0.07 0.07 0.06 0.06 0.07 0.08 0.09 0.09 0.08 0.07 0.07 0.07 0.06 0.07 0.07 0.06 0.06 0.06 0.06 0.07 0.08
0.03 0.07 0.07 0.04 0.03 0.01 0.01 0.00 0.00 0.00 0.01 0.01 0.02 0.04 0.04 0.04 0.03 0.03 0.04 0.05 0.05 0.05 0.05 0.05 0.05 0.06 0.07 0.09 0.10 0.09 0.10 0.11 0.10 0.09 0.10 0.10 0.06 0.04 0.05 0.05 0.05 0.07 0.07
0.01 0.01 0.02 0.03 0.02 0.01 0.01 0.00 0.00 0.01 0.01 0.02 0.03 0.04 0.05 0.04 0.02 0.03 0.04 0.06 0.05 0.04 0.03 0.04 0.05 0.07 0.08 0.08 0.09 0.10 0.12 0.14 0.12 0.11 0.12 0.10 0.07 0.07 0.06 0.05 0.06 0.07 0.07
0.01 0.01 0.01 0.01 0.02 0.01 0.01 0.00 0.00 0.01 0.01 0.02 0.02 0.02 0.02 0.02 0.02 0.08 0.11 0.09 0.06 0.04 0.04 0.04 0.06 0.08 0.10 0.09 0.08 0.07 0.06 0.07 0.07 0.07 0.08 0.08 0.08 0.07 0.06 0.06 0.06 0.07 0.07
0.00 0.00 0.01 0.01 0.01 0.01 0.01 0.00 0.01 0.01 0.01 0.01 0.01 0.01 0.01 0.01 0.03 0.09 0.13 0.08 0.04 0.03 0.03 0.02 0.03 0.04 0.06 0.06 0.04 0.03 0.04 0.05 0.04 0.05 0.05 0.06 0.06 0.07 0.07 0.07 0.07 0.07 0.08
0.00 0.00 0.00 0.00 0.01 0.00 0.00 0.00 0.00 0.01 0.01 0.01 0.01 0.01 0.01 0.01 0.01 0.01 0.02 0.02 0.03 0.02 0.02 0.02 0.03 0.03 0.03 0.03 0.02 0.03 0.04 0.04 0.04 0.05 0.05 0.07 0.08 0.09 0.08 0.08 0.08 0.08 0.07
0.00 0.00 0.00 0.00 0.00 0.00 0.00 0.00 0.01 0.01 0.01 0.02 0.01 0.01 0.01 0.02 0.02 0.02 0.02 0.02 0.02 0.02 0.01 0.01 0.02 0.02 0.02 0.02 0.03 0.03 0.03 0.03 0.03 0.04 0.06 0.08 0.10 0.11 0.11 0.10 0.07 0.06 0.04
0.00 0.00 0.00 0.00 0.00 0.00 0.01 0.01 0.01 0.01 0.02 0.02 0.01 0.01 0.02 0.03 0.04 0.04 0.03 0.02 0.02 0.01 0.01 0.01 0.02 0.02 0.02 0.03 0.03 0.03 0.02 0.02 0.01 0.02 0.04 0.07 0.09 0.09 0.09 0.09 0.07 0.06 0.05
0.00 0.00 0.01 0.01 0.01 0.01 0.01 0.01 0.01 0.01 0.01 0.01 0.01 0.01 0.02 0.03 0.03 0.03 0.03 0.03 0.03 0.02 0.02 0.02 0.02 0.01 0.01 0.02 0.03 0.04 0.03 0.02 0.02 0.02 0.03 0.05 0.08 0.08 0.09 0.09 0.07 0.05 0.05
0.01 0.01 0.01 0.01 0.01 0.02 0.01 0.01 0.01 0.01 0.01 0.01 0.01 0.01 0.02 0.02 0.03 0.05 0.05 0.05 0.04 0.03 0.03 0.02 0.02 0.01 0.01 0.01 0.01 0.02 0.02 0.01 0.01 0.01 0.01 0.03 0.06 0.06 0.05 0.04 0.03 0.02 0.02
0.02 0.01 0.01 0.01 0.01 0.02 0.02 0.01 0.01 0.01 0.01 0.01 0.01 0.01 0.01 0.01 0.03 0.08 0.10 0.08 0.05 0.04 0.03 0.02 0.02 0.01 0.01 0.01 0.01 0.01 0.00 0.00 0.00 0.00 0.01 0.02 0.03 0.02 0.02 0.01 0.01 0.00 0.00
0.02 0.02 0.02 0.02 0.01 0.02 0.02 0.02 0.02 0.02 0.01 0.01 0.01 0.01 0.01 0.02 0.02 0.02 0.03 0.07 0.05 0.03 0.03 0.02 0.02 0.02 0.01 0.01 0.01 0.00 0.00 0.00 0.00 0.01 0.01 0.01 0.02 0.02 0.01 0.01 0.00 0.00 0.00
0.03 0.03 0.03 0.02 0.02 0.02 0.02 0.02 0.02 0.02 0.02 0.02 0.01 0.01 0.01 0.01 0.01 0.01 0.01 0.02 0.02 0.02 0.02 0.02 0.02 0.02 0.01 0.01 0.01 0.00 0.00 0.01 0.01 0.01 0.01 0.00 0.00 0.01 0.01 0.00 0.00 0.00 0.00
0.04 0.04 0.04 0.03 0.03 0.03 0.03 0.03 0.03 0.02 0.01 0.02 0.01 0.01 0.01 0.01 0.01 0.01 0.01 0.01 0.01 0.01 0.01 0.01 0.01 0.01 0.01 0.01 0.01 0.01 0.01 0.01 0.01 0.01 0.00 0.00 0.00 0.01 0.01 0.00 0.00 0.00 0.00
MSLP
1010.48 1011.14 1011.83 1012.51 1013.13 1013.68 1014.11 1014.43 1014.63 1014.72 1014.71 1014.64 1014.53 1014.42 1014.33 1014.31 1014.36 1014.48 1014.65 1014.84 1015.02 1015.16 1015.24 1015.25 1015.19 1015.10 1014.99 1014.90 1014.86 1014.88 1014.94 1015.04 1015.13 1015.18 1015.16 1015.04 1014.82 1014.51 1014.14 1013.77 1013.43 1013.20 1013.10
1010.68 1011.33 1012.02 1012.69 1013.31 1013.84 1014.27 1014.60 1014.81 1014.93 1014.95 1014.91 1014.83 1014.73 1014.64 1014.60 1014.61 1014.68 1014.81 1014.97 1015.13 1015.28 1015.37 1015.40 1015.36 1015.27 1015.16 1015.05 1014.98 1014.96 1014.99 1015.07 1015.16 1015.22 1015.20 1015.09 1014.86 1014.52 1014.10 1013.64 1013.21 1012.87 1012.67
1011.22 1011.87 1012.53 1013.16 1013.72 1014.21 1014.59 1014.89 1015.09 1015.21 1015.25 1015.24 1015.18 1015.09 1015.00 1014.94 1014.92 1014.95 1015.04 1015.17 1015.32 1015.46 1015.57 1015.62 1015.61 1015.53 1015.41 1015.29 1015.18 1015.12 1015.11 1015.15 1015.22 1015.28 1015.27 1015.17 1014.95 1014.61 1014.18 1013.69 1013.21 1012.81 1012.55
1012.02 1012.64 1013.26 1013.82 1014.32 1014.72 1015.03 1015.27 1015.44 1015.55 1015.60 1015.61 1015.57 1015.50 1015.42 1015.35 1015.30 1015.30 1015.35 1015.45 1015.59 1015.73 1015.85 1015.91 1015.91 1015.85 1015.73 1015.58 1015.44 1015.33 1015.28 1015.28 1015.32 1015.36 1015.36 1015.28 1015.09 1014.78 1014.36 1013.89 1013.43 1013.03 1012.76
1012.93 1013.52 1014.09 1014.58 1014.98 1015.29 1015.52 1015.69 1015.82 1015.91 1015.97 1016.00 1015.99 1015.95 1015.89 1015.82 1015.75 1015.73 1015.75 1015.82 1015.93 1016.06 1016.18 1016.25 1016.26 1016.20 1016.07 1015.91 1015.73 1015.58 1015.48 1015.43 1015.43 1015.45 1015.45 1015.39 1015.24 1014.98 1014.63 1014.22 1013.82 1013.47 1013.25
1013.80 1014.37 1014.88 1015.31 1015.63 1015.85 1016.00 1016.11 1016.20 1016.27 1016.35 1016.40 1016.44 1016.43 1016.40 1016.34 1016.27 1016.23 1016.22 1016.26 1016.34 1016.44 1016.55 1016.61 1016.62 1016.55 1016.42 1016.23 1016.03 1015.83 1015.68 1015.59 1015.55 1015.55 1015.54 1015.50 1015.39 1015.19 1014.93 1014.61 1014.31 1014.06 1013.92
1014.53 1015.07 1015.54 1015.91 1016.17 1016.33 1016.42 1016.48 1016.54 1016.62 1016.71 1016.80 1016.88 1016.92 1016.92 1016.89 1016.83 1016.77 1016.74 1016.74 1016.78 1016.85 1016.92 1016.97 1016.96 1016.89 1016.74 1016.54 1016.31 1016.09 1015.90 1015.76 1015.68 1015.64 1015.62 1015.59 1015.52 1015.39 1015.21 1015.01 1014.82 1014.69 1014.67
1015.03 1015.56 1016.01 1016.35 1016.56 1016.68 1016.75 1016.79 1016.85 1016.94 1017.06 1017.19 1017.32 1017.41 1017.46 1017.45 1017.40 1017.34 1017.28 1017.25 1017.25 1017.27 1017.30 1017.32 1017.29 1017.20 1017.05 1016.84 1016.59 1016.35 1016.13 1015.96 1015.84 1015.77 1015.73 1015.69 1015.64 1015.56 1015.47 1015.37 1015.30 1015.31 1015.41
1015.29 1015.83 1016.27 1016.60 1016.81 1016.92 1016.98 1017.03 1017.10 1017.22 1017.38 1017.56 1017.74 1017.88 1017.97 1017.99 1017.97 1017.90 1017.83 1017.76 1017.72 1017.70 1017.69 1017.67 1017.62 1017.52 1017.37 1017.16 1016.92 1016.66 1016.43 1016.23 1016.08 1015.97 1015.89 1015.84 1015.80 1015.75 1015.72 1015.71 1015.75 1015.87 1016.09
1015.34 1015.88 1016.35 1016.69 1016.92 1017.05 1017.14 1017.22 1017.32 1017.48 1017.67 1017.90 1018.12 1018.31 1018.44 1018.50 1018.50 1018.45 1018.37 1018.28 1018.21 1018.16 1018.11 1018.07 1018.00 1017.90 1017.75 1017.55 1017.32 1017.08 1016.84 1016.63 1016.45 1016.30 1016.19 1016.11 1016.05 1016.01 1016.01 1016.06 1016.18 1016.39 1016.70
1015.19 1015.77 1016.26 1016.65 1016.92 1017.10 1017.23 1017.35 1017.50 1017.69 1017.93 1018.19 1018.46 1018.69 1018.86 1018.96 1018.99 1018.96 1018.89 1018.81 1018.73 1018.66 1018.60 1018.54 1018.47 1018.37 1018.24 1018.07 1017.87 1017.65 1017.42 1017.21 1017.01 1016.83 1016.68 1016.56 1016.47 1016.42 1016.42 1016.49 1016.65 1016.90 1017.26
1014.89 1015.51 1016.06 1016.50 1016.83 1017.08 1017.27 1017.44 1017.64 1017.87 1018.14 1018.43 1018.73 1018.99 1019.21 1019.35 1019.42 1019.44 1019.40 1019.34 1019.28 1019.21 1019.16 1019.10 1019.04 1018.96 1018.86 1018.72 1018.56 1018.38 1018.18 1017.97 1017.77 1017.57 1017.39 1017.22 1017.09 1017.00 1016.98 1017.05 1017.21 1017.47 1017.83
1014.48 1015.15 1015.75 1016.26 1016.66 1016.98 1017.24 1017.47 1017.72 1017.99 1018.29 1018.60 1018.92 1019.22 1019.48 1019.67 1019.80 1019.87 1019.89 1019.88 1019.85 1019.82 1019.79 1019.75 1019.71 1019.66 1019.59 1019.50 1019.38 1019.24 1019.08 1018.90 1018.70 1018.49 1018.28 1018.08 1017.91 1017.78 1017.73 1017.75 1017.88 1018.12 1018.45
1013.96 1014.69 1015.35 1015.92 1016.40 1016.80 1017.13 1017.43 1017.73 1018.04 1018.36 1018.70 1019.05 1019.38 1019.67 1019.92 1020.12 1020.26 1020.35 1020.41 1020.44 1020.45 1020.46 1020.45 1020.44 1020.42 1020.39 1020.34 1020.26 1020.17 1020.05 1019.90 1019.73 1019.53 1019.31 1019.09 1018.89 1018.72 1018.61 1018.59 1018.67 1018.85 1019.12
1013.35 1014.12 1014.84 1015.48 1016.05 1016.53 1016.94 1017.32 1017.67 1018.02 1018.37 1018.74 1019.11 1019.47 1019.81 1020.12 1020.38 1020.60 1020.78 1020.91 1021.01 1021.08 1021.12 1021.15 1021.17 1021.17 1021.17 1021.15 1021.12 1021.08 1021.00 1020.90 1020.76 1020.59 1020.38 1020.15 1019.93 1019.73 1019.58 1019.51 1019.53 1019.64 1019.84
1012.64 1013.45 1014.22 1014.94 1015.59 1016.16 1016.66 1017.12 1017.53 1017.93 1018.33 1018.72 1019.12 1019.52 1019.90 1020.27 1020.60 1020.90 1021.15 1021.36 1021.53 1021.65 1021.73 1021.79 1021.83 1021.85 1021.86 1021.87 1021.88 1021.87 1021.85 1021.79 1021.70 1021.56 1021.39 1021.18 1020.95 1020.74 1020.56 1020.44 1020.40 1020.44 1020.55
1011.86 1012.70 1013.52 1014.31 1015.04 1015.71 1016.31 1016.85 1017.35 1017.81 1018.25 1018.69 1019.12 1019.55 1019.97 1020.39 1020.78 1021.15 1021.47 1021.75 1021.97 1022.13 1022.25 1022.32 1022.37 1022.40 1022.42 1022.44 1022.47 1022.50 1022.52 1022.52 1022.48 1022.39 1022.26 1022.08 1021.87 1021.66 1021.46 1021.31 1021.21 1021.19 1021.22
1011.05 1011.90 1012.77 1013.62 1014.44 1015.21 1015.92 1016.56 1017.14 1017.67 1018.17 1018.65 1019.12 1019.58 1020.04 1020.50 1020.94 1021.36 1021.73 1022.06 1022.32 1022.52 1022.66 1022.74 1022.78 1022.81 1022.83 1022.86 1022.90 1022.95 1023.01 1023.05 1023.06 1023.03 1022.95 1022.81 1022.63 1022.43 1022.23 1022.06 1021.92 1021.84 1021.81
1010.25 1011.11 1012.01 1012.93 1013.84 1014.70 1015.52 1016.26 1016.94 1017.55 1018.11 1018.64 1019.14 1019.63 1020.12 1020.60 1021.07 1021.52 1021.94 1022.30 1022.59 1022.81 1022.96 1023.04 1023.08 1023.10 1023.12 1023.14 1023.19 1023.26 1023.35 1023.43 1023.48 1023.50 1023.47 1023.38 1023.24 1023.06 1022.86 1022.67 1022.51 1022.38 1022.30
1009.52 1010.38 1011.31 1012.29 1013.27 1014.23 1015.15 1016.00 1016.76 1017.46 1018.08 1018.65 1019.18 1019.69 1020.20 1020.70 1021.18 1021.65 1022.09 1022.47 1022.78 1023.02 1023.18 1023.27 1023.32 1023.33 1023.34 1023.37 1023.42 1023.50 1023.60 1023.70 1023.80 1023.85 1023.86 1023.81 1023.69 1023.54 1023.35 1023.16 1022.98 1022.82 1022.71
1008.93 1009.78 1010.73 1011.74 1012.79 1013.83 1014.84 1015.78 1016.63 1017.39 1018.07 1018.68 1019.24 1019.76 1020.27 1020.77 1021.26 1021.74 1022.19 1022.59 1022.92 1023.18 1023.36 1023.47 1023.53 1023.55 1023.57 1023.60 1023.65 1023.73 1023.83 1023.95 1024.05 1024.13 1024.16 1024.13 1024.04 1023.90 1023.73 1023.53 1023.35 1023.18 1023.04
1008.50 1009.34 1010.30 1011.33 1012.42 1013.53 1014.60 1015.61 1016.53 1017.35 1018.07 1018.70 1019.27 1019.80 1020.30 1020.80 1021.29 1021.77 1022.22 1022.64 1023.01 1023.30 1023.52 1023.67 1023.75 1023.80 1023.83 1023.87 1023.92 1023.99 1024.09 1024.20 1024.30 1024.37 1024.40 1024.38 1024.30 1024.18 1024.01 1023.82 1023.63 1023.46 1023.31
1008.28 1009.09 1010.03 1011.07 1012.18 1013.31 1014.43 1015.48 1016.44 1017.30 1018.04 1018.69 1019.27 1019.79 1020.28 1020.76 1021.25 1021.73 1022.20 1022.64 1023.04 1023.38 1023.65 1023.86 1023.99 1024.08 1024.14 1024.19 1024.24 1024.30 1024.38 1024.46 1024.53 1024.58 1024.60 1024.57 1024.49 1024.36 1024.20 1024.02 1023.84 1023.68 1023.53
1008.25 1009.03 1009.93 1010.95 1012.05 1013.18 1014.31 1015.38 1016.35 1017.22 1017.98 1018.63 1019.19 1019.70 1020.18 1020.64 1021.12 1021.60 1022.09 1022.57 1023.02 1023.42 1023.76 1024.03 1024.23 1024.37 1024.46 1024.53 1024.57 1024.62 1024.66 1024.70 1024.73 1024.74 1024.72 1024.67 1024.58 1024.46 1024.31 1024.15 1023.98 1023.83 1023.71
1008.39 1009.12 1009.98 1010.96 1012.02 1013.12 1014.23 1015.28 1016.25 1017.11 1017.85 1018.49 1019.04 1019.53 1019.99 1020.44 1020.91 1021.41 1021.91 1022.43 1022.93 1023.39 1023.81 1024.15 1024.41 1024.61 1024.74 1024.82 1024.86 1024.88 1024.88 1024.87 1024.85 1024.81 1024.76 1024.68 1024.58 1024.46 1024.32 1024.18 1024.05 1023.93 1023.84
1008.67 1009.34 1010.14 1011.06 1012.06 1013.11 1014.17 1015.18 1016.12 1016.95 1017.67 1018.29 1018.82 1019.29 1019.73 1020.17 1020.64 1021.14 1021.67 1022.22 1022.77 1023.30 1023.78 1024.18 1024.51 1024.76 1024.92 1025.01 1025.05 1025.04 1024.99 1024.93 1024.85 1024.77 1024.67 1024.57 1024.47 1024.36 1024.26 1024.15 1024.06 1023.99 1023.93
Thickness
5833 5831 5826 5821 5814 5808 5801 5797 5792 5788 5784 5779 5775 5772 5771 5772 5772 5771 5770 5768 5767 5766 5765 5763 5762 5761 5760 5759 5759 5758 5757 5758 5760 5756 5754 5759 5763 5762 5761 5760 5759 5757 5756
5832 5829 5826 5822 5815 5809 5803 5799 5795 5791 5787 5783 5780 5778 5776 5775 5775 5774 5772 5771 5769 5768 5767 5764 5762 5761 5760 5759 5758 5758 5755 5757 5759 5753 5747 5745 5749 5756 5761 5759 5757 5755 5754
5835 5830 5826 5822 5818 5812 5807 5804 5799 5795 5790 5788 5784 5782 5779 5777 5775 5774 5772 5772 5771 5769 5768 5766 5764 5762 5761 5759 5758 5757 5755 5753 5756 5756 5749 5741 5737 5744 5752 5754 5754 5753 5751
5843 5836 5830 5825 5821 5817 5813 5808 5802 5798 5794 5791 5787 5782 5777 5773 5775 5776 5775 5774 5773 5771 5769 5767 5764 5763 5762 5760 5759 5758 5757 5754 5751 5753 5754 5752 5748 5740 5738 5744 5748 5749 5747
5849 5841 5836 5830 5827 5823 5817 5811 5805 5801 5797 5793 5789 5785 5782 5780 5780 5778 5776 5774 5773 5771 5770 5768 5765 5763 5762 5761 5760 5759 5757 5755 5752 5751 5751 5751 5749 5747 5738 5734 5738 5741 5742
5854 5848 5843 5836 5830 5826 5821 5815 5807 5802 5799 5795 5791 5787 5783 5781 5779 5777 5774 5772 5772 5770 5769 5768 5766 5764 5762 5761 5760 5758 5757 5755 5753 5752 5750 5748 5745 5743 5740 5735 5734 5732 5735
5856 5849 5842 5836 5831 5827 5822 5817 5810 5803 5801 5797 5793 5789 5786 5783 5779 5777 5775 5773 5771 5769 5769 5768 5766 5764 5763 5761 5759 5757 5756 5755 5752 5751 5750 5749 5748 5747 5743 5737 5733 5730 5731
5858 5852 5846 5839 5833 5829 5825 5819 5812 5805 5801 5797 5793 5791 5788 5784 5781 5779 5777 5774 5772 5771 5771 5769 5767 5765 5763 5762 5759 5757 5755 5754 5752 5750 5749 5748 5747 5746 5743 5738 5732 5726 5724
5859 5854 5848 5842 5837 5832 5827 5822 5814 5807 5802 5799 5794 5791 5787 5784 5781 5779 5777 5774 5773 5772 5770 5768 5766 5764 5762 5761 5759 5755 5753 5752 5750 5749 5748 5746 5746 5744 5742 5740 5735 5726 5718
5858 5854 5850 5846 5840 5835 5829 5823 5816 5808 5804 5800 5795 5791 5787 5783 5781 5778 5774 5772 5770 5769 5767 5765 5764 5762 5760 5758 5756 5753 5751 5749 5748 5746 5745 5743 5742 5741 5739 5737 5734 5730 5722
5854 5852 5849 5845 5840 5834 5827 5820 5814 5808 5803 5799 5794 5791 5787 5783 5780 5777 5774 5771 5769 5767 5764 5763 5761 5759 5757 5756 5753 5751 5749 5746 5745 5743 5742 5740 5738 5736 5735 5733 5730 5726 5721
5851 5849 5844 5839 5835 5829 5823 5818 5813 5807 5802 5798 5793 5788 5785 5782 5778 5775 5772 5770 5767 5765 5762 5760 5758 5756 5754 5753 5750 5748 5746 5743 5741 5739 5737 5736 5735 5732 5730 5727 5724 5721 5718
5844 5842 5836 5829 5827 5824 5819 5815 5810 5805 5801 5796 5790 5785 5782 5779 5775 5773 5770 5767 5764 5761 5759 5756 5754 5752 5750 5749 5747 5744 5742 5740 5738 5735 5733 5731 5729 5726 5725 5722 5720 5717 5714
5836 5833 5829 5824 5821 5818 5815 5811 5807 5803 5798 5793 5788 5782 5778 5776 5773 5770 5767 5763 5761 5757 5754 5752 5750 5748 5746 5744 5742 5740 5737 5735 5733 5731 5729 5726 5724 5721 5720 5717 5714 5712 5707
5827 5825 5822 5819 5816 5813 5810 5807 5803 5799 5795 5789 5784 5779 5776 5773 5769 5765 5762 5759 5756 5753 5750 5747 5745 5743 5741 5738 5736 5734 5731 5729 5727 5725 5723 5720 5718 5716 5714 5712 5708 5705 5701
5820 5820 5818 5815 5812 5809 5806 5803 5799 5796 5792 5786 5781 5777 5773 5768 5764 5761 5757 5754 5751 5748 5744 5741 5738 5736 5733 5730 5729 5728 5726 5723 5721 5718 5716 5714 5712 5710 5707 5704 5701 5698 5694
5818 5816 5814 5812 5809 5807 5804 5799 5795 5792 5787 5782 5778 5774 5769 5764 5760 5757 5753 5749 5745 5741 5737 5734 5731 5728 5725 5724 5723 5722 5720 5717 5715 5712 5710 5709 5706 5703 5700 5697 5693 5690 5686
5816 5814 5812 5809 5807 5805 5802 5798 5793 5788 5783 5778 5773 5770 5765 5760 5756 5752 5748 5744 5740 5736 5732 5728 5725 5722 5719 5717 5716 5715 5714 5710 5707 5705 5703 5700 5697 5694 5692 5689 5684 5680 5677
5815 5813 5812 5809 5805 5801 5798 5793 5788 5784 5778 5773 5768 5765 5761 5755 5750 5746 5742 5739 5735 5730 5726 5722 5719 5716 5712 5711 5710 5709 5707 5702 5699 5697 5694 5692 5689 5686 5685 5681 5676 5672 5667
5813 5810 5809 5805 5799 5796 5793 5787 5782 5778 5773 5769 5765 5761 5756 5751 5746 5741 5737 5734 5730 5725 5721 5716 5713 5710 5707 5704 5704 5702 5701 5696 5692 5688 5685 5683 5680 5678 5676 5673 5669 5664 5659
5807 5806 5802 5797 5794 5792 5788 5781 5777 5772 5770 5766 5760 5756 5751 5747 5742 5737 5732 5728 5724 5719 5715 5710 5706 5703 5700 5698 5696 5694 5693 5690 5686 5682 5678 5674 5672 5669 5667 5665 5661 5656 5653
5799 5798 5793 5790 5789 5787 5782 5776 5771 5770 5766 5761 5755 5750 5745 5742 5737 5731 5727 5724 5719 5713 5708 5704 5700 5697 5694 5690 5688 5686 5685 5683 5680 5676 5671 5667 5664 5662 5659 5657 5653 5650 5647
5791 5790 5786 5783 5782 5780 5777 5771 5768 5766 5760 5754 5748 5744 5739 5735 5731 5726 5722 5718 5713 5709 5705 5700 5696 5692 5688 5684 5681 5678 5677 5675 5672 5668 5664 5660 5657 5654 5652 5649 5646 5643 5640
5784 5783 5779 5776 5774 5774 5772 5768 5764 5760 5754 5748 5742 5738 5733 5729 5724 5721 5717 5713 5708 5705 5702 5698 5693 5689 5684 5680 5676 5673 5669 5666 5664 5660 5656 5653 5650 5647 5645 5642 5639 5636 5633
5777 5775 5772 5769 5768 5767 5765 5762 5758 5754 5747 5742 5737 5732 5727 5722 5717 5712 5706 5705 5700 5699 5697 5695 5691 5685 5679 5673 5670 5668 5665 5662 5658 5654 5651 5648 5645 5642 5639 5636 5633 5630 5626
5769 5767 5765 5763 5762 5760 5757 5754 5751 5747 5741 5736 5731 5727 5722 5717 5712 5706 5699 5693 5692 5690 5689 5687 5684 5678 5673 5669 5665 5662 5660 5656 5652 5649 5647 5644 5641 5637 5634 5630 5626 5622 5618